Milwaukee, WI

1:38 AM CST on February 21, 2018 (GMT -0600)
Gen Mitchell International

Weather History for KMKE - September, 2013

Change the Weather History Date:

Sunday, September 1, 2013

  Actual Average Record
Temperature  
Mean Temperature 74 °F 68 °F  
Max Temperature 85 °F 76 °F 98 °F (1953)
Min Temperature 63 °F 61 °F 43 °F (1949)
Degree Days  
Heating Degree Days 0 1  
Month to date heating degree days 0 1  
Since 1 July heating degree days 22 27  
Cooling Degree Days 9 5  
Month to date cooling degree days 9 5  
Year to date cooling degree days 586 570  
Growing Degree Days 24 (Base 50)    
Moisture  
Dew Point 65 °F    
Average Humidity 79    
Maximum Humidity 100    
Minimum Humidity 58    
Precipitation  
Precipitation T in 0.11 in 0.99 in (1897)
Month to date precipitation T 0.11  
Year to date precipitation 30.13 24.29  
Snow  
Snow 0.00 in 0.00 in 0.00 in ()
Month to date snowfall 0.0 0.0  
Since 1 July snowfall 0.0 0.0  
Since 1 September snowfall 0.0 0.0  
Snow Depth 0.00 in    
Sea Level Pressure  
Sea Level Pressure 29.77 in    
Wind  
Wind Speed 5 mph (West)    
Max Wind Speed 20 mph    
Max Gust Speed 28 mph    
Visibility 10 miles    
Events      
T = Trace of Precipitation, MM = Missing Value Source: NWS Daily Summary

Daily Weather History Graph

Daily Weather History Graph

Search for Another Location

Airport or City:

Trip Planner

Search our weather history database for the weather conditions in past years. The results will help you decide how hot, cold, wet, or windy it might be!

Date:

Astronomy

Sep. 01, 2013 Rise Set
Actual Time 6:16 AM CDT 7:25 PM CDT
Civil Twilight 5:47 AM CDT 7:54 PM CDT
Nautical Twilight 5:12 AM CDT 8:29 PM CDT
Astronomical Twilight 4:35 AM CDT 9:06 PM CDT
Moon 2:34 AM CDT (9/1) 5:05 PM CDT (9/1)
Length of Visible Light 14h 07m
Length of Day
13h 09m
Waning Crescent, 13% of the Moon is Illuminated
Sep 1
Waning Crescent
Sep 5
New
Sep 12
First Quarter
Sep 19
Full
Sep 26
Last Quarter

Hourly Weather History & Observations

Time (CDT) Temp. Heat Index Dew Point Humidity Pressure Visibility Wind Dir Wind Speed Gust Speed Precip Events Conditions
12:52 AM 66.0 °F - 64.0 °F 93% 29.81 in 10.0 mi Calm Calm - N/A   Partly Cloudy
1:52 AM 66.9 °F - 64.9 °F 93% 29.81 in 10.0 mi Calm Calm - N/A   Clear
2:44 AM 66.2 °F - 66.2 °F 100% 29.81 in 10.0 mi Calm Calm - N/A   Mostly Cloudy
2:52 AM 66.9 °F - 64.9 °F 93% 29.80 in 10.0 mi Calm Calm - N/A   Mostly Cloudy
3:42 AM 64.4 °F - 62.6 °F 94% 29.79 in 10.0 mi Calm Calm - N/A   Scattered Clouds
3:52 AM 66.0 °F - 64.0 °F 93% 29.78 in 10.0 mi Calm Calm - N/A   Partly Cloudy
4:52 AM 66.0 °F - 64.0 °F 93% 29.78 in 10.0 mi Calm Calm - N/A   Partly Cloudy
5:52 AM 63.0 °F - 63.0 °F 100% 29.76 in 10.0 mi Calm Calm - N/A   Partly Cloudy
6:52 AM 64.9 °F - 63.0 °F 93% 29.79 in 9.0 mi NW 5.8 mph - N/A   Scattered Clouds
7:52 AM 69.1 °F - 64.9 °F 87% 29.77 in 9.0 mi Calm Calm - N/A   Scattered Clouds
8:52 AM 73.0 °F - 66.9 °F 81% 29.78 in 10.0 mi WNW 5.8 mph - N/A   Scattered Clouds
9:38 AM 73.4 °F - 64.4 °F 73% 29.82 in 10.0 mi WNW 11.5 mph - N/A   Mostly Cloudy
9:52 AM 75.0 °F - 64.0 °F 69% 29.80 in 10.0 mi WNW 9.2 mph - N/A   Mostly Cloudy
10:52 AM 77.0 °F - 64.9 °F 66% 29.78 in 10.0 mi Variable 4.6 mph - N/A   Mostly Cloudy
11:52 AM 79.0 °F - 64.9 °F 62% 29.76 in 10.0 mi West 5.8 mph - N/A   Mostly Cloudy
12:40 PM 80.6 °F 82.7 °F 66.2 °F 61% 29.76 in 10.0 mi West 8.1 mph - N/A   Mostly Cloudy
12:52 PM 81.0 °F 83.3 °F 66.9 °F 62% 29.75 in 10.0 mi SW 3.5 mph - N/A   Mostly Cloudy
1:30 PM 80.6 °F 83.2 °F 68.0 °F 65% 29.75 in 10.0 mi Variable 6.9 mph - N/A   Mostly Cloudy
1:52 PM 81.0 °F 83.3 °F 66.9 °F 62% 29.74 in 10.0 mi SSW 3.5 mph - N/A   Mostly Cloudy
2:52 PM 82.9 °F 85.4 °F 66.9 °F 58% 29.71 in 10.0 mi WSW 8.1 mph - N/A   Mostly Cloudy
3:52 PM 82.9 °F 85.8 °F 68.0 °F 60% 29.71 in 10.0 mi SW 10.4 mph - N/A   Mostly Cloudy
4:52 PM 84.0 °F 87.0 °F 68.0 °F 58% 29.70 in 10.0 mi SW 8.1 mph - N/A   Mostly Cloudy
5:52 PM 82.9 °F 85.8 °F 68.0 °F 60% 29.72 in 10.0 mi West 8.1 mph - N/A   Scattered Clouds
6:52 PM 73.0 °F - 66.0 °F 79% 29.74 in 10.0 mi West 4.6 mph - 0.00 in   Scattered Clouds
7:52 PM 72.0 °F - 64.9 °F 78% 29.75 in 10.0 mi NW 6.9 mph - N/A   Scattered Clouds
8:52 PM 72.0 °F - 64.9 °F 78% 29.77 in 10.0 mi NW 4.6 mph - N/A   Scattered Clouds
9:52 PM 73.0 °F - 63.0 °F 71% 29.80 in 10.0 mi NNW 8.1 mph - N/A   Scattered Clouds
10:52 PM 71.1 °F - 62.1 °F 73% 29.80 in 10.0 mi NW 6.9 mph - N/A   Partly Cloudy
11:52 PM 69.1 °F - 61.0 °F 75% 29.81 in 10.0 mi NW 5.8 mph - N/A   Clear